FW9594 Weather Reports


Display with metric or nautical units.
time (UTC)temp
F
wind
direction
speed
MPH
gust
MPH
rain 1hr
in
rain 24hr
in
rain mn
in
humidity
%
barometer
mb
20260503203112 85 272 2.0 11.0 0.00 0.00 0.00 33 1016.7
20260503202113 84 217 2.0 10.0 0.00 0.00 0.00 35 1016.8
20260503201113 83 286 2.0 10.0 0.00 0.00 0.00 32 1017.0
20260503200114 85 272 2.0 7.0 0.00 0.00 0.00 36 1017.2
20260503195112 84 224 3.0 7.0 0.00 0.00 0.00 34 1017.4
20260503194112 84 298 3.0 10.0 0.00 0.00 0.00 32 1017.5
20260503193113 83 123 1.0 7.0 0.00 0.00 0.00 37 1017.7
20260503192558 81 254 5.0 11.0 0.00 0.00 0.00 39 1017.8
20260503191556 83 134 2.0 9.0 0.00 0.00 0.00 38 1017.9
20260503190112 82 179 3.0 9.0 0.00 0.00 0.00 34 1018.1
20260503185112 81 223 8.0 13.0 0.00 0.00 0.00 38 1018.3
20260503184113 81 283 4.0 9.0 0.00 0.00 0.00 38 1018.5
20260503183553 80 145 6.0 11.0 0.00 0.00 0.00 42 1018.6
20260503182546 81 268 4.0 11.0 0.00 0.00 0.00 39 1018.7
20260503182021 80 257 5.0 10.0 0.00 0.00 0.00 41 1019.0
20260503180111 80 220 3.0 14.0 0.00 0.00 0.00 37 1019.1
20260503175110 79 285 4.0 13.0 0.00 0.00 0.00 44 1019.3
20260503174110 80 186 3.0 7.0 0.00 0.00 0.00 45 1019.5
20260503173110 78 269 7.0 14.0 0.00 0.00 0.00 44 1019.6
20260503172111 78 264 5.0 12.0 0.00 0.00 0.00 47 1019.7
20260503171109 79 228 3.0 9.0 0.00 0.00 0.00 49 1019.8
20260503170110 78 212 5.0 12.0 0.00 0.00 0.00 47 1020.0
20260503150110 70 317 2.0 9.0 0.00 0.00 0.00 55 1020.5
20260503140111 66 252 2.0 6.0 0.00 0.00 0.00 63 1020.5
20260503131111 62 209 1.0 4.0 0.00 0.00 0.00 68 1020.0
20260503130110 60 240 0.0 3.0 0.00 0.00 0.00 71 1020.1
20260503120110 58 212 1.0 3.0 0.00 0.00 0.00 71 1019.5
20260503110111 59 207 1.0 3.0 0.00 0.00 0.00 70 1019.0
20260503090112 58 209 0.0 3.0 0.00 0.00 0.00 70 1018.9
20260503081111 59 207 0.0 1.0 0.00 0.00 0.00 69 1018.8
20260503080112 59 185 0.0 0.0 0.00 0.00 0.00 70 1018.8
20260503072112 60 252 0.0 2.0 0.00 0.00 0.00 66 1019.2
20260503071112 61 252 0.0 2.0 0.00 0.00 0.00 66 1019.2
20260503070112 61 210 0.0 2.0 0.00 0.00 0.00 65 1019.4
20260503060111 62 228 0.0 0.0 0.00 0.00 0.00 65 1019.1
20260503055111 62 168 0.0 0.0 0.00 0.00 0.00 64 1019.0
20260503054112 62 216 0.0 0.0 0.00 0.00 0.00 63 1018.9
20260503053111 63 207 0.0 1.0 0.00 0.00 0.00 62 1019.1
20260503052111 63 219 0.0 1.0 0.00 0.00 0.00 62 1018.9
20260503051111 63 251 0.0 2.0 0.00 0.00 0.00 62 1018.9
20260503051030 63 245 0.0 2.0 0.00 0.00 0.00 62 1018.8
20260503045547 63 233 0.0 0.0 0.00 0.00 0.00 63 1018.8
20260503044110 62 220 0.0 0.0 0.00 0.00 0.00 64 1018.8
20260503043110 61 252 0.0 0.0 0.00 0.00 0.00 66 1018.8
20260503042109 61 252 0.0 0.0 0.00 0.00 0.00 67 1018.8
20260503041109 62 252 0.0 0.0 0.00 0.00 0.00 68 1018.9
20260503040108 62 252 0.0 0.0 0.00 0.00 0.00 69 1018.9
20260503035108 62 252 0.0 0.0 0.00 0.00 0.00 69 1018.8
20260503034108 62 252 0.0 0.0 0.00 0.00 0.00 68 1018.8
20260503033109 63 252 0.0 0.0 0.00 0.00 0.00 68 1018.8
20260503032109 63 252 0.0 0.0 0.00 0.00 0.00 68 1018.7
20260503031109 63 252 0.0 0.0 0.00 0.00 0.00 67 1018.7
20260503030109 63 252 0.0 0.0 0.00 0.00 0.00 67 1018.5
20260503025106 64 252 0.0 0.0 0.00 0.00 0.00 66 1018.4
20260503024543 64 252 0.0 0.0 0.00 0.00 0.00 65 1018.4
20260503023103 65 252 0.0 0.0 0.00 0.00 0.00 63 1018.4
20260503022102 65 252 0.0 0.0 0.00 0.00 0.00 62 1018.3
20260503021102 66 252 0.0 0.0 0.00 0.00 0.00 60 1018.2
20260503015102 67 252 0.0 0.0 0.00 0.00 0.00 57 1018.2
20260503014101 68 252 0.0 0.0 0.00 0.00 0.00 55 1018.1
20260503013543 69 252 0.0 0.0 0.00 0.00 0.00 53 1017.9
20260503012101 70 252 0.0 0.0 0.00 0.00 0.00 51 1017.9
20260503011102 71 252 0.0 0.0 0.00 0.00 0.00 49 1017.9
20260503005101 73 252 0.0 1.0 0.00 0.00 0.00 45 1017.8
20260503004101 75 252 0.0 3.0 0.00 0.00 0.00 45 1017.7
20260503003102 76 274 1.0 3.0 0.00 0.00 0.00 43 1017.8
20260503002534 76 268 0.0 4.0 0.00 0.00 0.00 42 1017.7
20260503001541 76 265 2.0 5.0 0.00 0.00 0.00 39 1017.7
20260503000540 76 276 1.0 4.0 0.00 0.00 0.00 41 1017.8
20260502235539 77 288 2.0 4.0 0.00 0.00 0.00 39 1017.8
20260502234101 77 264 2.0 7.0 0.00 0.00 0.00 39 1017.8
20260502233102 77 285 1.0 5.0 0.00 0.00 0.00 42 1017.9
20260502232101 76 298 1.0 4.0 0.00 0.00 0.00 40 1017.9
20260502231101 76 0 3.0 9.0 0.00 0.00 0.00 39 1018.0
20260502230101 78 274 3.0 7.0 0.00 0.00 0.00 39 1018.0
20260502225101 77 269 3.0 4.0 0.00 0.00 0.00 41 1018.0
20260502224100 76 61 1.0 4.0 0.00 0.00 0.00 40 1018.1
20260502223102 75 309 2.0 9.0 0.00 0.00 0.00 40 1018.1
20260502222101 76 261 2.0 7.0 0.00 0.00 0.00 40 1018.2
20260502221101 78 118 0.0 3.0 0.00 0.00 0.00 40 1018.2
20260502215101 77 288 2.0 6.0 0.00 0.00 0.00 36 1018.4
20260502214101 77 28 1.0 7.0 0.00 0.00 0.00 39 1018.5
20260502213101 77 309 4.0 7.0 0.00 0.00 0.00 37 1018.7
20260502212101 77 288 3.0 6.0 0.00 0.00 0.00 38 1018.7
20260502211101 77 292 2.0 6.0 0.00 0.00 0.00 36 1018.8
20260502210541 77 299 3.0 10.0 0.00 0.00 0.00 38 1019.0
20260502205101 77 265 1.0 4.0 0.00 0.00 0.00 35 1019.1
20260502204101 76 261 1.0 9.0 0.00 0.00 0.00 36 1019.3